This demonstration page uses our WeatherBlox Daily Observations layout. Learn more.

Left ArrowRight Arrow

39.01783, -85.05884

Hourly Observations for November 15, 2021

Temp ( °F °C ) Dew Point ( °F °C ) Humidity (%) Winds ( mph kmh ) Pressure ( in mb ) Visibility ( mi km ) Precip ( " mm )
12:52 am 00:52 Mostly Cloudy 34 1.1 23 -5 64 64 WSW 13 20 30.04 1017 10 16 N/A
1:52 am 01:52 Cloudy 34 1.1 24 -4.4 67 67 W 12 19 30.04 1017 10 16 N/A
2:52 am 02:52 Cloudy 34 1.1 25 -3.9 70 70 W 16 26 30.06 1018 10 16 N/A
3:52 am 03:52 Mostly Cloudy 33 0.6 25 -3.9 72 72 W 10 17 30.08 1019 10 16 N/A
4:52 am 04:52 Mostly Cloudy 33 0.6 25 -3.9 72 72 W 10 17 30.09 1019 10 16 N/A
5:22 am 05:22 Mostly Clear 31 -0.6 25 -3.9 79 79 W 7 11 30.13 1020 10 16 N/A
5:52 am 05:52 Mostly Clear 31 -0.6 24 -4.4 76 76 WSW 8 13 30.11 1020 10 16 N/A
6:52 am 06:52 Partly Cloudy 29 -1.7 24 -4.4 82 82 SW 5 7 30.13 1020 10 16 N/A
7:52 am 07:52 Mostly Cloudy 30 -1.1 24 -4.4 79 79 SW 5 7 30.16 1022 10 16 N/A
8:52 am 08:52 Partly Cloudy 33 0.6 25 -3.9 72 72 W 7 11 30.20 1023 10 16 N/A
9:52 am 09:52 Partly Cloudy 36 2.2 26 -3.3 67 67 SW 7 11 30.20 1023 10 16 N/A
10:52 am 10:52 Mostly Cloudy 38 3.3 27 -2.8 65 65 WSW 8 13 30.21 1023 10 16 N/A
11:52 am 11:52 Cloudy 39 3.9 25 -3.9 57 57 SW 10 17 30.19 1022 10 16 N/A
12:52 pm 12:52 Cloudy 41 5 26 -3.3 55 55 WSW 12 19 30.17 1022 10 16 N/A
1:52 pm 13:52 Cloudy 41 5 25 -3.9 53 53 WSW 12 19 30.15 1021 10 16 N/A
2:52 pm 14:52 Cloudy 41 5 26 -3.3 55 55 SW 12 19 30.14 1021 10 16 N/A
3:52 pm 15:52 Cloudy 41 5 25 -3.9 53 53 SW 9 15 30.15 1021 10 16 N/A
4:45 pm 16:45 Cloudy with Light Snow 39 3.9 27 -2.8 62 62 WSW 10 17 30.17 1022 10 16 0.00 0.00
4:52 pm 16:52 Cloudy with Light Snow 38 3.3 27 -2.8 65 65 WSW 9 15 30.14 1021 9 14 0.00 0.00
5:38 pm 17:38 Cloudy 36 2.2 31 -0.6 82 82 S 6 9 30.17 1022 9 14 0.00 0.00
5:43 pm 17:43 Cloudy with Light Snow 36 2.2 31 -0.6 82 82 SSW 6 9 30.17 1022 8 13 0.00 0.00
5:52 pm 17:52 Cloudy with Light Snow 35 1.7 31 -0.6 85 85 SSW 6 9 30.15 1021 9 14 0.00 0.00
6:52 pm 18:52 Cloudy with Light Snow 36 2.2 31 -0.6 82 82 S 6 9 30.15 1021 9 14 0.00 0.00
7:17 pm 19:17 Cloudy 36 2.2 31 -0.6 82 82 SSE 6 9 30.16 1021 9 14 0.00 0.00
7:52 pm 19:52 Cloudy 37 2.8 31 -0.6 79 79 SSW 5 7 30.13 1020 10 16 0.00 0.00
8:52 pm 20:52 Cloudy with Light Rain 37 2.8 31 -0.6 79 79 S 7 11 30.15 1021 10 16 0.00 0.00
9:52 pm 21:52 Cloudy 38 3.3 31 -0.6 76 76 S 5 7 30.14 1021 10 16 0.00 0.00
10:52 pm 22:52 Cloudy 38 3.3 31 -0.6 76 76 SSE 5 7 30.13 1020 10 16 N/A
11:52 pm 23:52 Cloudy 38 3.3 31 -0.6 76 76 SE 6 9 30.11 1020 10 16 N/A

Powered by AerisWeather